Regional Weather Roundup
Issued by NWS

Home | Current Version | Previous Version | Text Only | Print | Product List | Glossary Off
Versions: 1 2 3 4 5 6 7 8 9 10 11 12 13 14 15 16 17 18 19 20 21 22 23 24 25 26 27 28 29 30 31 32 33 34 35 36 37 38 39 40 41 42 43 44 45 46 47 48 49 50

000
ASUS43 KLMK 161510
RWRKY
KENTUCKY REGIONAL WEATHER ROUNDUP
NATIONAL WEATHER SERVICE LOUISVILLE KY
1000 AM EST MON JAN 16 2017

NOTE "FAIR" INDICATES FEW OR NO CLOUDS BELOW 12,000 FEET
WITH NO SIGNIFICANT WEATHER AND/OR OBSTRUCTIONS TO VISIBILITY.

KYZ001>023-026-027-061>063-070>075-161600-
WESTERN AND SOUTH CENTRAL KENTUCKY

CITY           SKY/WX    TMP DP  RH WIND       PRES   REMARKS
PADUCAH        CLOUDY    48  46  93 SE6       30.16S FOG
HENDERSON      CLOUDY    45  43  93 SE7       30.20S
OWENSBORO      CLOUDY    46  45  96 SE6       30.23S FOG
HOPKINSVILLE   MOSUNNY   49  49 100 SE8       30.21R
BOWLING GREEN  CLOUDY    48  46  93 CALM      30.25R
GLASGOW        CLOUDY   N/A N/A N/A CALM      30.25R
$$

KYZ024-025-028>034-038-045-046-053-161600-
NORTH CENTRAL KENTUCKY

CITY           SKY/WX    TMP DP  RH WIND       PRES   REMARKS
LOUISVILLE/SDF PTSUNNY   47  42  83 E3        30.26S
LOUISVILLE/LOU MOSUNNY   47  42  83 E5        30.27S
FORT KNOX      FOG       43  43 100 E6        30.23S VSB 1/4
$$

KYZ035>037-039>044-047>052-055>060-089>105-161600-
NORTHEAST KENTUCKY

CITY           SKY/WX    TMP DP  RH WIND       PRES   REMARKS
LEXINGTON      MOSUNNY   46  43  89 SE7       30.28S
COVINGTON      FOG       40  40 100 SE9       30.28R VSB 3/4 WCI  34
FRANKFORT      PTSUNNY   46  42  86 E6        30.27S
$$

KYZ054-064>069-076>088-106>120-161600-
SOUTHEAST KENTUCKY

CITY           SKY/WX    TMP DP  RH WIND       PRES   REMARKS
JACKSON        FOG       44  43  96 CALM      30.30R VSB 1/2
LONDON         CLOUDY    50  47  89 CALM      30.29R
SOMERSET       CLOUDY    46  46 100 CALM      30.30S
MIDDLESBORO    CLOUDY    52  52 100 CALM      30.33R
MONTICELLO     CLOUDY    51  51 100 CALM      30.29R
$$





USA.gov is the U.S. government's official web portal to all federal, state and local government web resources and services.